Regional Weather Roundup
Issued by NWS

Home | Current Version | Previous Version | Graphics & Text | Print | Product List | Glossary On
Versions: 1 2 3 4 5 6 7 8 9 10 11 12 13 14 15 16 17 18 19 20 21 22 23 24 25 26 27 28 29 30 31 32 33 34 35 36 37 38 39 40 41 42 43 44 45 46 47 48 49 50
000
ASUS43 KIND 062259
RWRIN

WEATHER ROUNDUP FOR INDIANA
NATIONAL WEATHER SERVICE INDIANAPOLIS IN
600 PM EST TUE DEC 06 2016

NOTE: "FAIR" INDICATES FEW OR NO CLOUDS BELOW 12,000 FEET WITH NO
SIGNIFICANT WEATHER AND/OR OBSTRUCTIONS TO VISIBILITY.

* - STATION DOES NOT REPORT WEATHER SUCH AS PRECIPITATION OR FOG.

+ - STATION NOT QUALITY CONTROLLED BY THE NATIONAL WEATHER SERVICE.
    USE DATA WITH CAUTION...ESPECIALLY DEWPOINT AND RELATIVE
    HUMIDITY OBSERVATIONS.

INZ001>003-010>013-019-020-070000-
NORTHWEST INDIANA

CITY           SKY/WX    TMP DP  RH WIND       PRES   REMARKS

$$

LMZ046-743>745-070000-
SOUTHERN LAKE MICHIGAN

STATION/POSITION TIME  TEMP    WIND        PRES    WAVE
                       AIR SEA DIR/SP/G            HT
                 (UTC) (F)     (DEG/KT/KT) (MB)    (FT)
BURNS HARBOR     2240   38     260/ 19/ 23 1010.8R
MICHIGAN CITY    2230   38     240/ 22/ 24   N/A

$$

INZ004-005-014>016-021>024-070000-
NORTH CENTRAL INDIANA

CITY           SKY/WX    TMP DP  RH WIND       PRES   REMARKS
ELKHART        CLOUDY    37  32  81 W7        29.79R
GOSHEN         CLOUDY    37  31  78 W14       29.80R
SOUTH BEND     PTCLDY    35  32  88 W10       29.81R WCI  27

$$

INZ006>009-017-018-025>027-070000-
NORTHEAST INDIANA

CITY           SKY/WX    TMP DP  RH WIND       PRES   REMARKS
ANGOLA *+      CLOUDY    37  34  87 W12       29.76R
FORT WAYNE     CLOUDY    39  34  82 W17       29.80R
KENDALLVILLE + CLOUDY    37  34  86 W13G20    29.78R

$$

INZ028-029-035-036-043>045-051>053-070000-
WEST CENTRAL INDIANA

CITY           SKY/WX    TMP DP  RH WIND       PRES   REMARKS
CRAWFORDSVL +  CLOUDY    34  34 100 W12G17    29.91R WCI  25
LAFAYETTE      CLOUDY    35  33  92 W10       29.90R WCI  27
TERRE HAUTE    CLOUDY    39  33  79 NW10      29.94R

$$

INZ030>032-037>040-046>048-054>057-064-065-070000-
CENTRAL INDIANA

CITY           SKY/WX    TMP DP  RH WIND       PRES   REMARKS
GREENWOOD *+   CLOUDY    39  35  84 NW17G29   29.88R
INDIANAPOLIS   CLOUDY    36  32  85 W20G32    29.91R
-EAGLE CREEK   CLOUDY    37  31  78 NW17G29   29.89R
KOKOMO +       CLOUDY    34  33  96 W16G24    29.87R FOG     WCI  24
SHELBYVILLE    CLOUDY    40  33  76 NW18G29   29.87R

$$

INZ033-034-041-042-049-050-058-059-070000-
EAST CENTRAL INDIANA

CITY           SKY/WX    TMP DP  RH WIND       PRES   REMARKS
MUNCIE         CLOUDY    38  34  85 W17G29    29.84R

$$

INZ060-061-067>069-081>083-085>088-070000-
SOUTHWEST INDIANA

CITY           SKY/WX    TMP DP  RH WIND       PRES   REMARKS
EVANSVILLE     CLOUDY    40  33  76 NW13G24   29.99R
HUNTINGBURG *+ CLOUDY    40  35  83 NW10      29.97R

$$

INZ062-063-066-070>080-084-089>092-070000-
SOUTH CENTRAL AND SOUTHEAST INDIANA

CITY           SKY/WX    TMP DP  RH WIND       PRES   REMARKS
BLOOMINGTON    CLOUDY    38  32  79 NW17G24   29.92R
MADISON *+     CLOUDY    43  37  81 W12       29.89R
SEYMOUR +      CLOUDY    43  36  75 W15       29.89R

$$




USA.gov is the U.S. government's official web portal to all federal, state and local government web resources and services.